RYR5JL EPKK-EBCI

Flight info

Callsign RYR5JL
Flight time 1h 38m
Altitude 38000
Route ADADO DCT UTEVO DCT ETUDA DCT BEKVI DCT BALTU DCT DONAD DCT OKG L984 ABERU DCT LONLI DCT MARZA DCT TEKTU DCT TESGA DCT UMUPU T880 ADMUM/N0360F240 T880 BATTY
Aircraft B38M/M-SDE1FGHILORVWXY/HB1

Departure

Time 2026-05-08 18:08
Airport Kraków John Paul II International Airport (EPKK)

Arrival

Time 2026-05-08 19:47
Airport Brussels South Charleroi Airport (EBCI)
Time Latitude Longitude Altitude Speed Heading
2026-05-08 17:44 50.07294 19.79886 802 ft 0 kts 167°
2026-05-08 17:57 50.07305 19.79882 802 ft 4 kts 166°
2026-05-08 17:57 50.07331 19.79871 802 ft 4 kts 160°
2026-05-08 17:58 50.07356 19.79854 802 ft 4 kts 144°
2026-05-08 17:58 50.07370 19.79826 802 ft 4 kts 90°
2026-05-08 17:58 50.07369 19.79817 802 ft 0 kts 77°
2026-05-08 18:01 50.07370 19.79819 802 ft 1 kts 77°
2026-05-08 18:01 50.07372 19.79838 802 ft 1 kts 78°
2026-05-08 18:01 50.07376 19.79865 802 ft 4 kts 78°
2026-05-08 18:02 50.07384 19.79918 802 ft 6 kts 78°
2026-05-08 18:02 50.07391 19.79968 802 ft 8 kts 78°
2026-05-08 18:02 50.07413 19.80128 802 ft 15 kts 78°
2026-05-08 18:02 50.07437 19.80297 802 ft 17 kts 78°
2026-05-08 18:03 50.07505 19.80394 802 ft 13 kts 17°
2026-05-08 18:03 50.07599 19.80418 802 ft 13 kts 348°
2026-05-08 18:03 50.07698 19.80386 802 ft 16 kts 348°
2026-05-08 18:03 50.07811 19.80348 802 ft 18 kts 348°
2026-05-08 18:04 50.07937 19.80306 802 ft 19 kts 348°
2026-05-08 18:04 50.08015 19.80219 802 ft 11 kts 259°
2026-05-08 18:04 50.08010 19.80182 803 ft 0 kts 258°
2026-05-08 18:07 50.08007 19.80162 803 ft 7 kts 258°
2026-05-08 18:07 50.07986 19.80004 803 ft 23 kts 257°
2026-05-08 18:08 50.07922 19.79548 803 ft 81 kts 258°
2026-05-08 18:08 50.07743 19.78255 804 ft 160 kts 257°
2026-05-08 18:08 50.07484 19.76409 1411 ft 187 kts 260°
2026-05-08 18:08 50.07223 19.74276 2266 ft 213 kts 260°
2026-05-08 18:09 50.06900 19.71830 2993 ft 245 kts 258°
2026-05-08 18:09 50.06508 19.69212 4013 ft 255 kts 257°
2026-05-08 18:09 50.06103 19.66460 4988 ft 264 kts 257°
2026-05-08 18:09 50.05700 19.63664 6152 ft 265 kts 257°
2026-05-08 18:10 50.05352 19.60844 7218 ft 266 kts 265°
2026-05-08 18:10 50.05551 19.58000 8361 ft 267 kts 281°
2026-05-08 18:10 50.05864 19.55139 9378 ft 270 kts 274°
2026-05-08 18:10 50.06097 19.52269 10386 ft 273 kts 275°
2026-05-08 18:11 50.06353 19.49249 10984 ft 291 kts 276°
2026-05-08 18:11 50.06632 19.46042 11585 ft 305 kts 276°
2026-05-08 18:11 50.06928 19.42725 12387 ft 311 kts 276°
2026-05-08 18:11 50.07228 19.39385 13314 ft 314 kts 277°
2026-05-08 18:12 50.07534 19.35993 14141 ft 318 kts 277°
2026-05-08 18:12 50.07842 19.32563 14905 ft 322 kts 277°
2026-05-08 18:12 50.08154 19.29093 15643 ft 326 kts 277°
2026-05-08 18:12 50.08468 19.25578 16377 ft 329 kts 277°
2026-05-08 18:13 50.08786 19.22021 17090 ft 333 kts 277°
2026-05-08 18:13 50.09106 19.18422 17794 ft 337 kts 277°
2026-05-08 18:13 50.09429 19.14784 18471 ft 341 kts 277°
2026-05-08 18:13 50.09753 19.11106 19066 ft 344 kts 277°
2026-05-08 18:14 50.10078 19.07403 19680 ft 347 kts 277°
2026-05-08 18:14 50.10406 19.03674 20267 ft 349 kts 277°
2026-05-08 18:14 50.10623 19.01181 20662 ft 351 kts 277°
2026-05-08 18:14 50.11061 18.96154 21439 ft 355 kts 276°
2026-05-08 18:15 50.11392 18.92334 22024 ft 357 kts 276°
2026-05-08 18:15 50.11724 18.88488 22604 ft 360 kts 276°
2026-05-08 18:15 50.11950 18.85868 22994 ft 362 kts 276°
2026-05-08 18:15 50.12393 18.80689 23755 ft 365 kts 276°
2026-05-08 18:16 50.12616 18.78080 24075 ft 367 kts 276°
2026-05-08 18:16 50.12952 18.74124 24589 ft 369 kts 276°
2026-05-08 18:16 50.13398 18.68856 25267 ft 370 kts 276°
2026-05-08 18:16 50.13625 18.66163 25611 ft 372 kts 276°
2026-05-08 18:17 50.13961 18.62158 26115 ft 373 kts 276°
2026-05-08 18:17 50.14298 18.58138 26593 ft 375 kts 276°
2026-05-08 18:17 50.14635 18.54085 27056 ft 377 kts 276°
2026-05-08 18:17 50.14968 18.50068 27524 ft 379 kts 276°
2026-05-08 18:18 50.15307 18.45969 27967 ft 382 kts 276°
2026-05-08 18:18 50.15645 18.41853 28411 ft 383 kts 276°
2026-05-08 18:18 50.15984 18.37717 28872 ft 385 kts 276°
2026-05-08 18:18 50.16323 18.33557 29294 ft 387 kts 276°
2026-05-08 18:19 50.16662 18.29375 29729 ft 389 kts 275°
2026-05-08 18:19 50.17001 18.25175 30148 ft 391 kts 275°
2026-05-08 18:19 50.17340 18.20959 30492 ft 393 kts 275°
2026-05-08 18:19 50.17676 18.16760 30804 ft 395 kts 275°
2026-05-08 18:20 50.18016 18.12491 31120 ft 398 kts 275°
2026-05-08 18:20 50.18357 18.08191 31432 ft 400 kts 275°
2026-05-08 18:20 50.18697 18.03872 31743 ft 402 kts 275°
2026-05-08 18:20 50.19039 17.99522 32051 ft 405 kts 275°
2026-05-08 18:21 50.19380 17.95158 32359 ft 407 kts 275°
2026-05-08 18:21 50.19722 17.90752 32657 ft 409 kts 275°
2026-05-08 18:21 50.20063 17.86339 32959 ft 411 kts 275°
2026-05-08 18:21 50.20405 17.81900 33307 ft 412 kts 275°
2026-05-08 18:22 50.20745 17.77457 33725 ft 411 kts 275°
2026-05-08 18:22 50.20921 17.73074 34105 ft 409 kts 268°
2026-05-08 18:22 50.20901 17.68657 34595 ft 404 kts 269°
2026-05-08 18:22 50.20920 17.64255 34873 ft 406 kts 269°
2026-05-08 18:23 50.20950 17.59833 35103 ft 408 kts 269°
2026-05-08 18:23 50.20985 17.55400 35377 ft 409 kts 269°
2026-05-08 18:23 50.20841 17.50968 35604 ft 408 kts 257°
2026-05-08 18:23 50.20056 17.46713 35881 ft 409 kts 254°
2026-05-08 18:24 50.19276 17.42422 36047 ft 412 kts 254°
2026-05-08 18:24 50.18487 17.38176 36307 ft 412 kts 254°
2026-05-08 18:24 50.17670 17.33869 36526 ft 414 kts 253°
2026-05-08 18:24 50.16844 17.29560 36740 ft 415 kts 253°
2026-05-08 18:25 50.16011 17.25237 36969 ft 416 kts 253°
2026-05-08 18:25 50.15173 17.20905 37193 ft 417 kts 253°
2026-05-08 18:25 50.14327 17.16545 37399 ft 419 kts 253°
2026-05-08 18:25 50.13490 17.12238 37550 ft 421 kts 253°
2026-05-08 18:26 50.12638 17.07865 37762 ft 422 kts 253°
2026-05-08 18:26 50.11784 17.03489 37968 ft 423 kts 253°
2026-05-08 18:26 50.10923 16.99094 38135 ft 424 kts 253°
2026-05-08 18:26 50.10060 16.94694 38145 ft 425 kts 253°
2026-05-08 18:27 50.08626 16.87404 38130 ft 421 kts 253°
2026-05-08 18:27 50.06621 16.77263 38130 ft 420 kts 253°
2026-05-08 18:28 50.04895 16.68567 38116 ft 420 kts 253°
2026-05-08 18:28 50.03159 16.59866 38128 ft 421 kts 253°
2026-05-08 18:29 50.01606 16.51095 38099 ft 420 kts 265°
2026-05-08 18:29 50.01755 16.42020 38090 ft 422 kts 271°
2026-05-08 18:30 50.02062 16.32965 38133 ft 423 kts 272°
2026-05-08 18:30 50.02410 16.23846 38124 ft 422 kts 272°
2026-05-08 18:31 50.02762 16.14725 38132 ft 422 kts 272°
2026-05-08 18:31 50.03108 16.05579 38120 ft 424 kts 272°
2026-05-08 18:32 50.03448 15.96416 38116 ft 424 kts 272°
2026-05-08 18:32 50.03780 15.87258 38130 ft 424 kts 272°
2026-05-08 18:33 50.04106 15.78075 38130 ft 424 kts 272°
2026-05-08 18:33 50.04422 15.68957 38138 ft 424 kts 272°
2026-05-08 18:34 50.04733 15.59794 38130 ft 424 kts 272°
2026-05-08 18:34 50.05037 15.50616 38121 ft 424 kts 272°
2026-05-08 18:35 50.05334 15.41419 38118 ft 425 kts 272°
2026-05-08 18:35 50.05623 15.32237 38121 ft 425 kts 272°
2026-05-08 18:36 50.05904 15.23101 38129 ft 424 kts 272°
2026-05-08 18:36 50.06179 15.13919 38130 ft 425 kts 271°
2026-05-08 18:37 50.06448 15.04692 38127 ft 425 kts 271°
2026-05-08 18:37 50.06707 14.95556 38127 ft 425 kts 271°
2026-05-08 18:38 50.06961 14.86363 38131 ft 425 kts 271°
2026-05-08 18:38 50.07210 14.77163 38131 ft 425 kts 271°
2026-05-08 18:39 50.07394 14.68019 38127 ft 425 kts 270°
2026-05-08 18:39 50.07545 14.58828 38130 ft 425 kts 270°
2026-05-08 18:40 50.07693 14.49623 38131 ft 425 kts 270°
2026-05-08 18:40 50.07834 14.40419 38132 ft 425 kts 270°
2026-05-08 18:41 50.07968 14.31266 38129 ft 425 kts 270°
2026-05-08 18:41 50.08094 14.22069 38130 ft 425 kts 270°
2026-05-08 18:42 50.08214 14.12868 38131 ft 425 kts 270°
2026-05-08 18:42 50.08326 14.03643 38145 ft 425 kts 270°
2026-05-08 18:43 50.08431 13.94440 38141 ft 425 kts 270°
2026-05-08 18:43 50.08528 13.85274 38140 ft 425 kts 270°
2026-05-08 18:44 50.08618 13.76068 38143 ft 425 kts 270°
2026-05-08 18:44 50.08702 13.66851 38141 ft 426 kts 270°
2026-05-08 18:45 50.08778 13.57635 38139 ft 425 kts 270°
2026-05-08 18:45 50.08846 13.48460 38133 ft 425 kts 270°
2026-05-08 18:46 50.08909 13.39237 38136 ft 425 kts 270°
2026-05-08 18:46 50.08839 13.30020 38147 ft 424 kts 266°
2026-05-08 18:47 50.08604 13.20877 38138 ft 425 kts 267°
2026-05-08 18:47 50.08380 13.11686 38132 ft 425 kts 267°
2026-05-08 18:48 50.08151 13.02487 38131 ft 425 kts 267°
2026-05-08 18:48 50.07928 12.93288 38132 ft 425 kts 267°
2026-05-08 18:49 50.07699 12.84099 38135 ft 425 kts 267°
2026-05-08 18:49 50.07462 12.74889 38129 ft 425 kts 267°
2026-05-08 18:50 50.07218 12.65687 38131 ft 425 kts 267°
2026-05-08 18:50 50.06966 12.56478 38130 ft 425 kts 266°
2026-05-08 18:51 50.06708 12.47276 38126 ft 425 kts 266°
2026-05-08 18:51 50.06602 12.38122 38133 ft 426 kts 270°
2026-05-08 18:52 50.06731 12.28893 38132 ft 426 kts 270°
2026-05-08 18:52 50.06822 12.19665 38133 ft 426 kts 270°
2026-05-08 18:53 50.06904 12.10428 38133 ft 426 kts 270°
2026-05-08 18:53 50.06996 12.01193 38132 ft 426 kts 270°
2026-05-08 18:54 50.07079 11.92028 38140 ft 426 kts 270°
2026-05-08 18:54 50.07155 11.82786 38132 ft 426 kts 270°
2026-05-08 18:55 50.07257 11.68917 38129 ft 427 kts 270°
2026-05-08 18:56 50.07315 11.59678 38134 ft 427 kts 270°
2026-05-08 18:56 50.07366 11.50448 38119 ft 426 kts 270°
2026-05-08 18:57 50.07409 11.41253 38122 ft 428 kts 270°
2026-05-08 18:57 50.07445 11.31998 38128 ft 428 kts 269°
2026-05-08 18:58 50.07511 11.22738 38121 ft 428 kts 274°
2026-05-08 18:58 50.08139 11.13520 38125 ft 429 kts 275°
2026-05-08 18:59 50.08791 11.04294 38126 ft 428 kts 275°
2026-05-08 18:59 50.09442 10.95060 38128 ft 429 kts 275°
2026-05-08 19:00 50.09977 10.87381 38128 ft 429 kts 275°
2026-05-08 19:00 50.10723 10.76575 38130 ft 429 kts 275°
2026-05-08 19:01 50.11352 10.67333 38129 ft 429 kts 275°
2026-05-08 19:01 50.11971 10.58130 38121 ft 429 kts 275°
2026-05-08 19:02 50.12901 10.48955 38129 ft 430 kts 286°
2026-05-08 19:02 50.14436 10.39923 38116 ft 430 kts 282°
2026-05-08 19:03 50.15845 10.30834 38123 ft 431 kts 282°
2026-05-08 19:03 50.16998 10.23274 38127 ft 431 kts 282°
2026-05-08 19:04 50.18376 10.14181 38128 ft 431 kts 282°
2026-05-08 19:04 50.19750 10.05060 38121 ft 431 kts 282°
2026-05-08 19:05 50.21117 9.95936 38123 ft 431 kts 282°
2026-05-08 19:05 50.22475 9.86818 38120 ft 431 kts 282°
2026-05-08 19:06 50.23819 9.77738 38128 ft 431 kts 282°
2026-05-08 19:06 50.25164 9.68598 38123 ft 431 kts 282°
2026-05-08 19:07 50.26501 9.59458 38114 ft 432 kts 282°
2026-05-08 19:07 50.27831 9.50314 38113 ft 432 kts 282°
2026-05-08 19:08 50.29157 9.41148 38112 ft 432 kts 282°
2026-05-08 19:08 50.30474 9.31980 38112 ft 432 kts 282°
2026-05-08 19:09 50.31778 9.22859 38111 ft 432 kts 282°
2026-05-08 19:09 50.33080 9.13681 38101 ft 432 kts 282°
2026-05-08 19:10 50.34376 9.04497 38107 ft 432 kts 282°
2026-05-08 19:10 50.35666 8.95302 38111 ft 432 kts 281°
2026-05-08 19:11 50.36948 8.86105 38108 ft 432 kts 281°
2026-05-08 19:11 50.38224 8.76898 38113 ft 432 kts 281°
2026-05-08 19:12 50.39484 8.67740 38113 ft 432 kts 281°
2026-05-08 19:12 50.40743 8.58537 38114 ft 432 kts 281°
2026-05-08 19:13 50.41997 8.49320 38120 ft 432 kts 281°
2026-05-08 19:13 50.43241 8.40108 38120 ft 432 kts 281°
2026-05-08 19:14 50.44479 8.30886 38119 ft 431 kts 281°
2026-05-08 19:14 50.45710 8.21653 38112 ft 431 kts 281°
2026-05-08 19:15 50.46933 8.12426 38113 ft 431 kts 281°
2026-05-08 19:15 50.48141 8.03250 38122 ft 431 kts 281°
2026-05-08 19:16 50.49347 7.94027 38117 ft 431 kts 281°
2026-05-08 19:16 50.50548 7.84786 38115 ft 432 kts 281°
2026-05-08 19:17 50.51745 7.75512 38119 ft 432 kts 281°
2026-05-08 19:17 50.52924 7.66314 38115 ft 432 kts 281°
2026-05-08 19:18 50.54106 7.57041 38115 ft 432 kts 281°
2026-05-08 19:18 50.55278 7.47770 38114 ft 432 kts 281°
2026-05-08 19:19 50.55886 7.38390 38127 ft 431 kts 271°
2026-05-08 19:19 50.55973 7.28980 38111 ft 432 kts 271°
2026-05-08 19:20 50.56042 7.19525 38108 ft 433 kts 270°
2026-05-08 19:20 50.55870 7.10134 37882 ft 424 kts 268°
2026-05-08 19:20 50.55781 7.05470 37142 ft 426 kts 269°
2026-05-08 19:21 50.55693 7.00808 36481 ft 426 kts 269°
2026-05-08 19:21 50.55601 6.96179 35982 ft 422 kts 268°
2026-05-08 19:21 50.55493 6.91577 35502 ft 419 kts 268°
2026-05-08 19:21 50.55384 6.87005 35044 ft 415 kts 268°
2026-05-08 19:22 50.55276 6.82486 34587 ft 412 kts 268°
2026-05-08 19:22 50.55168 6.78042 34115 ft 410 kts 268°
2026-05-08 19:22 50.55057 6.73580 33549 ft 408 kts 268°
2026-05-08 19:22 50.54997 6.69132 32982 ft 406 kts 275°
2026-05-08 19:23 50.55388 6.64727 32206 ft 409 kts 278°
2026-05-08 19:23 50.55749 6.60257 31355 ft 415 kts 277°
2026-05-08 19:23 50.56083 6.55723 30518 ft 420 kts 277°
2026-05-08 19:23 50.56407 6.51126 29575 ft 426 kts 277°
2026-05-08 19:24 50.56727 6.46461 28591 ft 430 kts 277°
2026-05-08 19:24 50.57046 6.41749 27633 ft 434 kts 277°
2026-05-08 19:24 50.57363 6.37020 26918 ft 433 kts 276°
2026-05-08 19:24 50.57675 6.32341 26500 ft 425 kts 276°
2026-05-08 19:25 50.57979 6.27755 26085 ft 418 kts 276°
2026-05-08 19:25 50.58277 6.23236 25646 ft 412 kts 276°
2026-05-08 19:25 50.58569 6.18782 25216 ft 406 kts 276°
2026-05-08 19:25 50.58851 6.14447 24791 ft 401 kts 276°
2026-05-08 19:26 50.59132 6.10099 24372 ft 396 kts 276°
2026-05-08 19:26 50.59408 6.05809 23960 ft 392 kts 276°
2026-05-08 19:26 50.59680 6.01561 23525 ft 388 kts 276°
2026-05-08 19:26 50.59948 5.97348 23069 ft 384 kts 276°
2026-05-08 19:27 50.60212 5.93187 22653 ft 379 kts 276°
2026-05-08 19:27 50.60470 5.89076 22265 ft 374 kts 276°
2026-05-08 19:27 50.60723 5.85029 21881 ft 370 kts 275°
2026-05-08 19:27 50.60973 5.81013 21495 ft 366 kts 275°
2026-05-08 19:28 50.61215 5.77099 21125 ft 362 kts 275°
2026-05-08 19:28 50.61456 5.73176 20749 ft 358 kts 275°
2026-05-08 19:28 50.61693 5.69296 20375 ft 355 kts 275°
2026-05-08 19:28 50.61927 5.65448 20014 ft 351 kts 275°
2026-05-08 19:29 50.62158 5.61634 19652 ft 348 kts 275°
2026-05-08 19:29 50.62386 5.57854 19292 ft 345 kts 275°
2026-05-08 19:29 50.62610 5.54107 18942 ft 342 kts 275°
2026-05-08 19:29 50.62831 5.50385 18588 ft 340 kts 275°
2026-05-08 19:30 50.63050 5.46680 18209 ft 337 kts 275°
2026-05-08 19:30 50.63266 5.43018 17828 ft 334 kts 275°
2026-05-08 19:30 50.63478 5.39394 17472 ft 331 kts 275°
2026-05-08 19:30 50.63687 5.35807 17128 ft 327 kts 274°
2026-05-08 19:31 50.63893 5.32251 16790 ft 324 kts 274°
2026-05-08 19:31 50.64096 5.28732 16455 ft 321 kts 274°
2026-05-08 19:31 50.64295 5.25255 16115 ft 318 kts 274°
2026-05-08 19:31 50.64492 5.21798 15786 ft 315 kts 274°
2026-05-08 19:32 50.64686 5.18375 15452 ft 312 kts 274°
2026-05-08 19:32 50.64878 5.14978 15127 ft 310 kts 274°
2026-05-08 19:32 50.65064 5.11653 14813 ft 308 kts 274°
2026-05-08 19:32 50.65252 5.08301 14488 ft 305 kts 274°
2026-05-08 19:33 50.65436 5.04971 14164 ft 304 kts 274°
2026-05-08 19:33 50.65619 5.01664 13838 ft 302 kts 274°
2026-05-08 19:33 50.65800 4.98368 13483 ft 300 kts 274°
2026-05-08 19:33 50.65978 4.95106 13158 ft 298 kts 274°
2026-05-08 19:34 50.66154 4.91873 12833 ft 295 kts 274°
2026-05-08 19:34 50.66328 4.88659 12522 ft 292 kts 274°
2026-05-08 19:34 50.66497 4.85516 12219 ft 289 kts 274°
2026-05-08 19:34 50.66666 4.82369 11916 ft 287 kts 274°
2026-05-08 19:35 50.66833 4.79249 11616 ft 284 kts 274°
2026-05-08 19:35 50.66996 4.76164 11317 ft 282 kts 274°
2026-05-08 19:35 50.67158 4.73092 11025 ft 279 kts 274°
2026-05-08 19:35 50.67317 4.70054 10726 ft 277 kts 274°
2026-05-08 19:36 50.67475 4.67028 10439 ft 275 kts 274°
2026-05-08 19:36 50.67631 4.64028 10153 ft 273 kts 274°
2026-05-08 19:36 50.67785 4.61054 9837 ft 272 kts 274°
2026-05-08 19:36 50.67938 4.58079 9484 ft 272 kts 274°
2026-05-08 19:37 50.68089 4.55117 9164 ft 270 kts 274°
2026-05-08 19:37 50.68237 4.52217 8869 ft 267 kts 274°
2026-05-08 19:37 50.68387 4.49272 8583 ft 265 kts 274°
2026-05-08 19:37 50.68532 4.46390 8297 ft 262 kts 274°
2026-05-08 19:38 50.68665 4.43568 8011 ft 260 kts 270°
2026-05-08 19:38 50.68277 4.40823 7520 ft 263 kts 239°
2026-05-08 19:38 50.67041 4.38661 7001 ft 269 kts 216°
2026-05-08 19:38 50.65352 4.37318 6464 ft 276 kts 199°
2026-05-08 19:39 50.63532 4.36244 5935 ft 282 kts 200°
2026-05-08 19:39 50.61692 4.35128 5507 ft 284 kts 200°
2026-05-08 19:39 50.59853 4.34012 5181 ft 281 kts 200°
2026-05-08 19:39 50.58054 4.32921 4898 ft 278 kts 200°
2026-05-08 19:40 50.56255 4.31831 4639 ft 273 kts 200°
2026-05-08 19:40 50.54537 4.30796 4498 ft 255 kts 199°
2026-05-08 19:40 50.52933 4.29834 4370 ft 238 kts 199°
2026-05-08 19:40 50.51443 4.28941 4297 ft 220 kts 199°
2026-05-08 19:41 50.50062 4.28111 4151 ft 206 kts 199°
2026-05-08 19:41 50.48759 4.27326 4029 ft 196 kts 199°
2026-05-08 19:41 50.47526 4.26583 3939 ft 184 kts 199°
2026-05-08 19:41 50.46357 4.25874 3787 ft 178 kts 199°
2026-05-08 19:42 50.45210 4.25175 3653 ft 176 kts 199°
2026-05-08 19:42 50.44066 4.24478 3544 ft 177 kts 199°
2026-05-08 19:42 50.42905 4.23910 3314 ft 174 kts 179°
2026-05-08 19:42 50.41837 4.24501 2978 ft 165 kts 133°
2026-05-08 19:43 50.41300 4.26035 2782 ft 161 kts 104°
2026-05-08 19:43 50.41347 4.27765 2680 ft 161 kts 76°
2026-05-08 19:43 50.41692 4.29442 2621 ft 162 kts 72°
2026-05-08 19:43 50.42079 4.31103 2503 ft 162 kts 69°
2026-05-08 19:44 50.42515 4.32692 2272 ft 155 kts 68°
2026-05-08 19:44 50.42937 4.34215 2006 ft 150 kts 67°
2026-05-08 19:44 50.43348 4.35710 1737 ft 149 kts 69°
2026-05-08 19:44 50.43696 4.37219 1575 ft 146 kts 69°
2026-05-08 19:45 50.44080 4.38696 1388 ft 146 kts 67°
2026-05-08 19:45 50.44490 4.40129 1221 ft 142 kts 66°
2026-05-08 19:45 50.44898 4.41532 1050 ft 142 kts 65°
2026-05-08 19:45 50.45312 4.42969 820 ft 146 kts 65°
2026-05-08 19:46 50.45723 4.44385 629 ft 141 kts 65°
2026-05-08 19:46 50.46095 4.45666 597 ft 111 kts 66°
2026-05-08 19:46 50.46561 4.47271 599 ft 55 kts 65°
2026-05-08 19:47 50.46716 4.47726 597 ft 25 kts 21°
2026-05-08 19:47 50.46831 4.47665 595 ft 19 kts 333°
2026-05-08 19:47 50.46953 4.47624 588 ft 16 kts 38°
2026-05-08 19:47 50.47022 4.47631 587 ft 1 kts 334°
2026-05-08 19:48 50.47024 4.47630 587 ft 0 kts 335°